Date,TemperatureHighF,TemperatureAvgF,TemperatureLowF,DewpointHighF,DewpointAvgF,DewpointLowF,HumidityHigh,HumidityAvg,HumidityLow,PressureMaxIn,PressureMinIn,WindSpeedMaxMPH,WindSpeedAvgMPH,GustSpeedMaxMPH,PrecipitationSumIn
2012-1-1,64.0,53.1,45.0,46.6,42.0,36.3,89,67,51,30.16,30.05,7,1,9,0.00
2012-1-2,61.0,51.5,47.0,49.5,46.7,43.9,93,84,63,30.25,30.13,12,1,20,0.00
2012-1-3,63.0,52.3,47.0,51.7,46.0,41.3,96,81,50,30.30,30.18,7,0,9,0.00
2012-1-4,68.0,55.3,45.0,45.5,42.1,37.1,95,64,34,30.29,30.18,8,1,10,0.00
2012-1-5,67.0,52.6,45.0,50.6,45.6,38.1,94,79,52,30.27,30.11,10,1,16,0.00
2012-1-6,60.0,49.7,43.0,50.0,44.9,40.5,99,85,61,30.17,30.06,10,1,15,0.00
2012-1-7,68.0,55.0,42.0,47.0,28.0,8.5,98,48,10,30.18,30.04,10,1,19,0.00
2012-1-8,68.0,57.4,49.0,27.6,18.3,7.0,38,23,9,30.18,30.08,7,1,11,0.00
2012-1-9,68.0,53.0,43.0,41.1,35.8,26.9,80,54,31,30.22,30.07,5,0,8,0.00
2012-1-10,66.0,52.7,43.0,43.0,37.7,31.9,83,59,29,30.15,30.01,6,0,8,0.00
2012-1-11,68.0,55.8,43.0,43.7,35.1,28.7,86,49,23,30.12,29.97,5,0,8,0.00
2012-1-12,67.0,53.7,42.0,44.9,30.1,19.2,86,46,16,30.11,29.97,7,0,11,0.00
2012-1-13,69.0,54.1,43.0,41.4,33.1,26.6,79,48,22,30.17,30.05,7,0,9,0.00
2012-1-14,66.0,52.0,40.0,44.2,36.8,29.2,90,59,26,30.17,30.02,7,0,10,0.00
2012-1-15,52.0,47.1,40.0,44.8,38.2,26.0,92,72,53,30.18,30.03,19,3,31,0.00
2012-1-16,54.0,43.9,36.0,32.8,26.3,15.3,68,52,23,30.29,30.17,7,1,12,0.00
2012-1-17,55.0,44.1,37.0,40.0,34.6,28.6,91,70,46,30.36,30.26,10,1,13,0.00
2012-1-18,55.0,45.6,39.0,43.9,39.1,35.0,98,79,54,30.35,30.23,7,0,10,0.00
2012-1-19,50.0,46.7,42.0,47.6,43.6,39.5,97,89,70,30.23,30.04,6,1,13,0.29
2012-1-20,57.0,53.2,49.0,54.7,51.1,47.3,96,93,88,30.04,29.74,20,3,34,1.62
2012-1-21,55.0,50.5,45.0,52.3,44.4,39.5,96,80,65,30.15,29.78,19,4,27,0.20
2012-1-22,53.0,48.3,44.0,50.1,44.3,38.5,93,86,73,30.15,29.84,10,2,20,0.23
2012-1-23,58.0,51.7,45.0,52.7,48.1,42.5,96,88,68,30.15,29.72,25,5,28,0.59
2012-1-24,62.0,51.3,45.0,50.8,44.9,41.0,98,80,56,30.35,30.15,8,0,11,0.00
2012-1-25,67.0,56.1,50.0,51.9,48.2,43.7,89,76,52,30.35,30.22,9,1,12,0.00
2012-1-26,58.0,54.0,49.0,53.4,50.8,47.6,95,89,76,30.27,30.17,12,2,18,0.00
2012-1-27,69.0,54.7,46.0,52.4,38.2,7.0,100,64,9,30.23,30.11,8,0,10,0.00
2012-1-28,67.0,53.9,43.0,39.2,28.5,9.9,80,43,11,30.27,30.14,8,1,12,0.00
2012-1-29,65.0,53.8,43.0,46.1,41.6,36.8,86,65,41,30.23,30.08,10,0,10,0.00
2012-1-30,61.0,51.9,48.0,48.2,45.4,38.0,95,79,58,30.11,30.01,11,2,17,0.00
2012-1-31,58.0,49.4,43.0,47.3,44.9,39.7,95,85,65,30.19,30.07,12,2,21,0.00
2012-2-1,60.0,52.0,45.0,51.1,46.6,42.2,95,82,63,30.22,30.16,12,1,16,0.05
2012-2-2,71.0,55.2,46.0,47.9,39.3,25.3,93,63,18,30.21,29.91,6,0,9,0.00
2012-2-3,64.0,52.9,46.0,45.6,39.8,25.0,89,64,28,30.06,29.95,9,1,13,0.00
2012-2-4,68.0,53.8,43.0,47.3,36.2,24.9,92,57,25,30.09,29.98,5,0,10,0.00
2012-2-5,67.0,55.4,46.0,41.8,34.7,27.1,80,49,23,30.10,29.94,7,0,10,0.00
2012-2-6,68.0,55.4,49.0,46.0,38.2,26.4,82,54,24,29.99,29.79,7,0,9,0.10
2012-2-7,58.0,53.6,51.0,47.9,46.0,42.5,88,76,62,30.09,29.78,10,2,17,0.13
2012-2-8,66.0,55.4,47.0,52.4,47.6,44.9,97,77,52,30.19,30.09,7,0,10,0.00
2012-2-9,70.0,57.1,47.0,51.1,46.0,38.6,94,69,41,30.21,30.08,15,1,16,0.00
2012-2-10,61.0,53.4,48.0,54.8,47.1,37.1,94,80,61,30.16,30.07,13,3,17,0.10
2012-2-11,59.0,51.5,47.0,50.0,47.3,43.9,94,86,70,30.07,29.99,14,3,20,0.03
2012-2-12,58.0,49.6,44.0,49.3,45.0,41.8,96,85,66,30.07,30.00,15,3,21,0.06
2012-2-13,53.0,47.0,44.0,48.0,42.3,37.9,94,84,68,30.03,29.93,16,4,23,0.29
2012-2-14,58.0,49.0,42.0,46.9,42.4,38.5,94,79,52,30.09,30.02,19,3,21,0.01
2012-2-15,61.0,50.6,41.0,47.8,30.0,15.3,93,49,19,30.13,30.03,13,2,22,0.11
2012-2-16,66.0,53.1,46.0,45.9,30.1,17.3,91,47,16,30.20,30.12,13,1,14,0.00
2012-2-17,64.0,51.4,45.0,50.7,47.5,43.7,97,87,61,30.21,30.13,13,3,19,0.00
2012-2-18,60.0,51.1,44.0,48.9,43.2,35.9,96,76,56,30.17,30.08,13,3,22,0.00
2012-2-19,55.0,47.4,40.0,41.8,38.1,31.4,85,71,42,30.15,30.05,15,2,19,0.00
2012-2-20,62.0,51.2,46.0,48.6,44.6,40.5,93,79,57,30.19,30.07,5,0,9,0.05
2012-2-21,67.0,54.3,46.0,51.4,47.6,44.4,96,80,51,30.25,30.14,6,0,10,0.00
2012-2-22,76.0,59.1,50.0,55.5,46.5,35.7,92,67,24,30.21,30.05,14,1,18,0.00
2012-2-23,75.0,60.2,47.0,50.6,36.1,13.0,88,48,14,30.08,29.90,10,1,13,0.00
2012-2-24,74.0,59.1,49.0,48.2,28.7,10.5,83,39,10,30.17,29.95,15,3,25,0.00
2012-2-25,60.0,50.7,45.0,43.1,34.5,25.9,80,55,29,30.28,30.16,13,2,16,0.00
2012-2-26,59.0,46.9,39.0,38.9,33.9,18.7,85,63,23,30.18,29.91,17,3,24,0.00
2012-2-27,55.0,45.7,38.0,38.8,35.7,30.5,91,69,47,30.00,29.84,12,2,19,0.00
2012-2-28,56.0,48.3,41.0,43.6,36.0,29.6,88,64,38,30.20,30.00,15,4,23,0.00
2012-2-29,56.0,49.7,46.0,49.2,44.6,40.2,97,83,67,30.22,30.03,21,4,26,0.38
2012-3-1,56.0,48.0,42.0,49.7,43.5,37.8,95,85,72,30.23,30.15,16,3,24,0.26
2012-3-2,67.0,52.4,41.0,41.9,29.9,17.6,86,47,15,30.28,30.19,9,1,11,0.00
2012-3-3,72.0,56.3,44.0,46.3,36.6,24.9,89,53,19,30.29,30.14,10,1,12,0.00
2012-3-4,74.0,58.3,46.0,46.5,40.5,34.4,85,55,26,30.19,29.98,7,1,11,0.00
2012-3-5,57.0,48.5,42.0,47.9,44.2,39.0,97,85,68,30.09,30.01,21,5,28,0.03
2012-3-6,55.0,48.9,44.0,47.9,34.5,18.5,97,60,33,30.07,29.97,15,5,25,0.03
2012-3-7,64.0,50.9,43.0,35.8,20.2,2.4,68,33,10,30.17,30.06,10,2,20,0.00
2012-3-8,72.0,55.2,42.0,45.0,33.9,15.9,88,52,13,30.28,30.14,8,1,15,0.00
2012-3-9,76.0,54.0,43.0,46.3,38.5,24.1,93,63,16,30.30,30.09,10,1,18,0.00
2012-3-10,57.0,49.4,45.0,47.9,44.3,41.1,93,83,68,30.14,30.01,15,3,18,0.00
2012-3-11,58.0,50.3,46.0,48.9,44.4,41.5,91,80,61,30.07,30.01,13,3,18,0.00
2012-3-12,61.0,51.5,42.0,47.2,42.6,35.0,98,74,41,30.06,29.93,16,2,21,0.00
2012-3-13,54.0,52.8,51.0,50.8,49.0,46.0,90,87,76,29.98,29.91,16,4,25,0.37
2012-3-14,56.0,54.7,53.0,53.4,52.2,50.5,94,91,88,30.08,29.96,11,3,19,1.49
2012-3-15,58.0,55.3,53.0,55.3,53.0,50.4,94,92,85,30.11,30.04,13,3,16,0.14
2012-3-16,57.0,53.7,48.0,55.3,51.1,44.3,96,91,82,30.05,29.79,18,5,27,1.24
2012-3-17,52.0,46.9,42.0,45.6,41.3,36.5,97,82,62,29.81,29.63,16,3,25,0.00
2012-3-18,53.0,47.0,43.0,39.2,35.5,30.9,81,65,44,29.99,29.74,22,6,30,0.00
2012-3-19,61.0,48.8,40.0,36.9,31.5,22.0,73,53,23,30.09,29.98,9,2,17,0.00
2012-3-20,64.0,55.3,49.0,46.9,39.8,28.5,81,57,39,30.15,30.07,9,1,13,0.00
2012-3-21,69.0,55.1,47.0,52.1,48.3,43.0,95,79,49,30.15,29.97,13,2,15,0.00
2012-3-22,57.0,50.9,45.0,51.0,43.9,35.6,96,78,48,30.04,29.95,15,4,25,0.02
2012-3-23,61.0,50.7,39.0,42.5,37.0,27.8,94,62,35,30.09,29.90,14,2,19,0.00
2012-3-24,52.0,46.3,42.0,45.8,41.2,26.9,99,86,39,29.95,29.87,12,1,19,1.27
2012-3-25,59.0,49.1,43.0,46.8,43.5,40.2,100,82,56,29.93,29.82,12,2,15,0.22
2012-3-26,61.0,50.7,42.0,44.0,40.0,33.1,91,69,39,30.07,29.93,12,3,19,0.00
2012-3-27,58.0,53.4,51.0,51.7,46.7,39.2,92,78,63,30.02,29.89,19,4,29,0.53
2012-3-28,64.0,55.7,50.0,53.4,50.9,48.3,96,85,65,30.11,29.95,13,4,17,0.00
2012-3-29,65.0,53.7,48.0,52.7,49.4,46.9,96,86,57,30.11,30.03,10,3,15,0.00
2012-3-30,67.0,57.2,53.0,53.4,50.7,47.9,92,79,59,30.09,29.90,13,3,18,0.00
2012-3-31,59.0,54.4,47.0,51.2,46.6,41.4,95,76,60,30.04,29.75,20,6,29,0.66
2012-4-1,58.0,51.1,45.0,43.7,39.3,33.6,85,65,44,30.24,30.04,16,4,24,0.00
2012-4-2,66.0,52.8,44.0,46.7,41.1,30.1,86,67,27,30.22,30.04,15,2,19,0.00
2012-4-3,64.0,53.2,48.0,50.5,45.9,42.8,93,77,48,30.10,30.00,14,4,23,0.09
2012-4-4,57.0,49.8,44.0,43.4,39.2,33.4,85,68,44,30.17,30.10,19,4,25,0.00
2012-4-5,54.0,47.5,40.0,40.2,35.3,30.7,79,63,44,30.17,30.09,17,4,23,0.00
2012-4-6,61.0,49.8,40.0,40.7,35.9,27.6,85,61,28,30.24,30.14,10,2,16,0.00
2012-4-7,69.0,53.5,41.0,44.1,35.6,25.3,89,55,20,30.16,30.00,12,2,16,0.00
2012-4-8,69.0,51.7,41.0,46.1,40.5,30.0,86,68,30,30.08,29.97,17,3,23,0.00
2012-4-9,72.0,55.0,45.0,48.2,41.5,20.1,95,66,15,30.02,29.80,22,2,25,0.00
2012-4-10,56.0,53.0,51.0,51.9,48.4,41.5,94,85,65,29.92,29.85,9,2,19,0.63
2012-4-11,61.0,54.6,49.0,50.5,47.8,44.6,95,79,58,29.99,29.85,20,5,28,0.21
2012-4-12,63.0,53.2,47.0,49.4,44.2,31.6,94,74,36,30.02,29.85,17,5,28,1.28
2012-4-13,56.0,50.4,45.0,49.3,43.8,40.1,95,79,60,29.91,29.78,20,4,26,0.35
2012-4-14,63.0,52.6,45.0,48.2,42.5,36.7,91,70,44,30.11,29.91,16,4,20,0.00
2012-4-15,60.0,52.0,49.0,48.4,46.5,44.7,93,82,64,30.18,30.11,16,4,23,0.00
2012-4-16,61.0,53.4,48.0,49.2,46.9,44.4,91,79,60,30.19,30.13,16,4,20,0.00
2012-4-17,61.0,54.2,50.0,52.0,49.5,45.7,93,85,67,30.16,30.06,14,3,17,0.00
2012-4-18,63.0,55.6,49.0,52.0,48.2,43.7,89,77,57,30.13,30.06,19,5,25,0.00
2012-4-19,68.0,59.4,53.0,56.3,52.9,49.8,93,80,64,30.12,30.01,13,3,20,0.00
2012-4-20,82.0,65.7,54.0,59.0,50.5,44.1,90,62,31,30.06,29.90,11,2,15,0.00
2012-4-21,86.0,69.5,55.0,52.5,47.6,43.8,75,50,24,29.97,29.77,7,1,12,0.00
2012-4-22,61.0,56.1,52.0,52.0,50.1,47.3,94,81,68,29.93,29.87,25,6,37,0.09
2012-4-23,68.0,58.3,53.0,52.5,50.3,48.0,92,76,54,29.99,29.89,17,6,21,0.00
2012-4-24,70.0,60.5,57.0,54.0,51.0,49.1,79,71,51,30.01,29.93,17,4,22,0.00
2012-4-25,72.0,60.7,55.0,54.9,52.2,49.1,91,74,49,29.99,29.78,13,2,20,0.22
2012-4-26,60.0,55.4,50.0,53.7,48.0,42.7,95,77,55,30.17,29.81,16,5,26,0.16
2012-4-27,66.0,55.3,47.0,47.6,42.9,37.1,82,65,41,30.19,30.10,13,2,21,0.00
2012-4-28,67.0,58.1,50.0,51.5,47.3,42.3,86,69,47,30.12,29.89,16,3,22,0.00
2012-4-29,66.0,54.0,49.0,55.4,49.1,46.5,92,84,64,29.93,29.89,7,1,10,0.00
2012-4-30,68.0,58.3,49.0,54.6,49.9,46.5,96,75,48,29.98,29.91,17,6,29,0.00
2012-5-1,60.0,52.5,46.0,50.9,45.4,42.1,97,78,58,29.96,29.89,19,4,29,0.00
2012-5-2,57.0,51.0,45.0,47.2,44.0,41.9,92,78,61,29.99,29.93,19,5,33,0.00
2012-5-3,65.0,55.3,49.0,54.6,49.7,43.7,95,82,65,30.07,29.97,17,5,23,0.02
2012-5-4,61.0,54.2,48.0,51.6,45.6,42.0,96,74,53,30.18,30.07,17,4,28,0.00
2012-5-5,70.0,57.9,47.0,50.1,41.6,29.6,85,59,23,30.18,30.01,13,2,19,0.00
2012-5-6,78.0,64.0,50.0,49.1,38.4,24.0,81,46,14,30.05,29.92,13,2,20,0.00
2012-5-7,83.0,63.6,50.0,52.3,43.0,27.2,90,55,14,30.02,29.89,14,2,20,0.00
2012-5-8,77.0,59.5,47.0,54.6,47.1,38.5,97,70,26,29.99,29.86,12,3,20,0.00
2012-5-9,56.0,50.7,49.0,49.6,46.7,44.7,92,86,76,29.98,29.93,14,4,19,0.00
2012-5-10,78.0,59.4,46.0,51.5,43.0,29.8,94,61,21,29.95,29.82,15,2,20,0.00
2012-5-11,78.0,59.5,47.0,52.1,45.7,39.6,89,64,30,30.00,29.86,14,2,23,0.00
2012-5-12,66.0,54.1,47.0,52.4,48.3,44.2,97,82,49,30.05,29.97,16,4,24,0.00
2012-5-13,62.0,54.5,49.0,50.2,48.5,46.3,98,81,63,30.06,30.00,20,7,26,0.00
2012-5-14,66.0,57.7,51.0,52.5,49.1,45.3,89,74,52,30.06,29.99,15,3,18,0.00
2012-5-15,60.0,53.1,49.0,51.1,48.7,46.6,95,85,70,30.06,29.98,19,5,30,0.00
2012-5-16,59.0,51.8,49.0,51.8,48.9,47.3,97,90,75,30.04,29.95,19,4,25,0.00
2012-5-17,59.0,52.4,49.0,50.0,47.7,45.0,97,84,70,29.98,29.88,27,7,32,0.00
2012-5-18,66.0,53.9,46.0,49.0,45.9,42.3,92,75,45,29.98,29.91,22,4,29,0.00
2012-5-19,64.0,55.0,47.0,49.2,45.8,41.8,94,73,46,29.99,29.92,15,4,23,0.00
2012-5-20,71.0,57.0,49.0,52.5,47.2,42.3,93,71,37,30.01,29.90,17,5,25,0.00
2012-5-21,62.0,54.4,50.0,54.4,51.6,48.9,99,91,74,30.07,29.99,21,6,25,0.00
2012-5-22,62.0,56.5,51.0,54.6,50.6,46.7,99,82,60,30.09,30.02,19,6,29,0.00
2012-5-23,66.0,57.7,51.0,51.5,46.7,43.3,85,68,46,30.03,29.92,16,4,23,0.00
2012-5-24,64.0,55.9,49.0,49.7,45.5,41.3,83,69,57,29.94,29.78,29,5,29,0.00
2012-5-25,61.0,53.3,48.0,49.4,45.2,42.1,87,74,56,29.87,29.79,20,5,22,0.00
2012-5-26,61.0,53.1,47.0,51.6,47.4,43.9,96,82,65,30.07,29.87,27,4,27,0.00
2012-5-27,59.0,53.3,50.0,49.7,47.7,46.3,93,82,68,30.13,30.05,19,4,26,0.00
2012-5-28,60.0,54.2,49.0,51.3,48.8,44.6,96,83,67,30.07,30.00,22,5,27,0.00
2012-5-29,62.0,53.8,49.0,50.9,47.8,45.6,91,81,60,30.06,29.99,20,5,25,0.00
2012-5-30,64.0,54.2,49.0,51.5,48.7,46.5,95,82,63,30.09,29.98,19,5,28,0.00
2012-5-31,77.0,60.6,50.0,58.9,36.2,-46.6,99,51,1,30.05,29.83,12,4,20,0.00
2012-6-1,65.0,56.5,51.0,45.5,32.9,-46.6,70,50,1,29.89,29.78,23,6,31,0.00
2012-6-2,60.0,53.3,50.0,43.5,33.1,-46.0,71,54,1,29.97,29.85,20,8,28,0.00
2012-6-3,65.0,55.5,49.0,45.3,32.8,-46.6,71,52,1,29.97,29.88,17,5,25,0.00
2012-6-4,59.0,55.2,50.0,46.0,34.6,-45.3,70,54,1,30.10,29.91,16,5,22,0.13
2012-6-5,62.0,55.3,49.0,59.0,34.5,-47.8,100,54,1,30.14,30.08,15,5,22,0.00
2012-6-6,65.0,56.0,46.0,44.5,33.2,-46.0,73,51,1,30.10,29.95,17,3,24,0.00
2012-6-7,64.0,56.0,48.0,44.5,32.8,-47.2,71,51,1,30.01,29.95,21,5,28,0.11
2012-6-8,65.0,56.8,49.0,45.9,33.2,-45.3,76,51,1,29.98,29.91,20,4,29,0.00
2012-6-9,75.0,61.6,47.0,57.1,37.1,-49.0,75,50,1,30.00,29.83,12,2,19,0.00
2012-6-10,83.0,71.5,57.0,60.9,46.0,-36.9,68,48,1,29.89,29.79,16,2,19,0.00
2012-6-11,84.0,64.9,51.0,61.2,38.2,-40.5,70,46,1,29.97,29.84,16,3,25,0.00
2012-6-12,76.0,59.3,50.0,56.0,34.5,-46.6,71,50,1,29.97,29.87,20,5,30,0.00
2012-6-13,64.0,54.5,49.0,43.1,31.2,-47.2,71,51,1,29.93,29.79,23,6,29,0.07
2012-6-14,63.0,55.4,49.0,43.6,32.1,-46.6,72,51,1,29.85,29.77,25,6,25,0.02
2012-6-15,68.0,58.3,47.0,49.7,34.9,-44.7,71,51,1,29.86,29.77,16,3,20,0.00
2012-6-16,92.0,71.3,53.0,66.6,44.1,-44.1,70,47,1,29.86,29.67,13,2,16,0.00
2012-6-17,74.0,59.4,53.0,51.7,37.1,-44.1,72,52,1,29.91,29.79,21,4,25,0.00
2012-6-18,59.0,53.8,50.0,43.5,31.2,-46.6,70,51,1,29.94,29.86,19,8,31,0.02
2012-6-19,72.0,58.7,50.0,49.9,34.5,-46.6,71,50,1,29.90,29.83,15,5,23,0.00
2012-6-20,82.0,61.4,52.0,62.9,36.4,-44.7,93,50,1,29.87,29.76,19,3,26,0.00
2012-6-21,60.0,53.5,50.0,43.3,33.7,-46.0,70,55,1,29.98,29.85,17,5,26,0.00
2012-6-22,66.0,55.7,51.0,45.0,33.3,-45.3,70,52,1,29.97,29.89,13,4,17,0.01
2012-6-23,64.0,57.0,50.0,45.1,32.9,-46.6,70,50,1,29.96,29.88,16,4,23,0.00
2012-6-24,65.0,57.4,50.0,45.5,33.9,-44.7,71,50,1,30.02,29.95,16,4,22,0.00
2012-6-25,66.0,59.0,51.0,46.9,35.0,-42.3,71,50,1,30.05,29.99,16,4,22,0.00
2012-6-26,68.0,60.5,50.0,49.5,36.7,-45.3,76,50,1,30.05,29.88,13,3,21,0.00
2012-6-27,66.0,58.6,49.0,47.3,33.8,-45.3,72,49,1,29.96,29.87,21,5,28,0.02
2012-6-28,67.0,57.7,53.0,46.4,34.9,-44.7,70,51,1,30.06,29.96,22,5,28,0.00
2012-6-29,66.0,59.1,54.0,46.7,34.8,-43.5,69,49,1,30.07,29.99,14,5,23,0.00
2012-6-30,68.0,60.7,56.0,49.4,37.1,-42.9,69,51,1,30.01,29.91,15,4,22,0.02
2012-7-1,66.0,59.1,56.0,47.9,37.4,-42.3,70,52,1,29.96,29.88,13,4,23,0.00
2012-7-2,62.0,56.8,53.0,46.0,34.6,-44.7,70,52,1,29.92,29.85,18,6,34,0.03
2012-7-3,66.0,57.4,51.0,46.4,34.3,-45.3,70,50,1,29.92,29.81,16,5,25,0.00
2012-7-4,68.0,57.6,52.0,46.2,32.5,-45.3,70,49,1,29.91,29.83,26,8,34,0.00
2012-7-5,63.0,56.1,52.0,44.4,34.1,-45.3,70,52,1,29.99,29.91,23,6,27,0.00
2012-7-6,68.0,57.1,52.0,45.5,34.3,-45.3,70,51,1,30.01,29.92,14,4,20,0.00
2012-7-7,71.0,58.0,51.0,51.4,34.6,-45.3,71,51,1,30.00,29.89,15,4,23,0.00
2012-7-8,63.0,54.8,51.0,43.5,32.3,-46.0,70,52,1,30.03,29.96,16,4,25,0.00
2012-7-9,65.0,55.2,51.0,43.5,32.8,-45.3,70,51,1,30.05,29.93,19,3,20,0.00
2012-7-10,74.0,58.6,50.0,52.7,34.9,-46.6,71,50,1,29.99,29.80,12,4,18,0.00
2012-7-11,83.0,59.3,50.0,52.9,34.9,-47.2,71,50,1,29.90,29.73,13,4,16,0.00
2012-7-12,63.0,55.2,50.0,43.5,31.3,-46.6,71,50,1,29.89,29.82,16,6,24,0.00
2012-7-13,60.0,54.2,51.0,44.0,33.3,-46.0,70,54,1,29.94,29.88,20,4,31,0.00
2012-7-14,63.0,55.0,51.0,43.5,33.3,-45.3,70,53,1,29.97,29.88,19,6,28,0.02
2012-7-15,68.0,57.0,52.0,47.2,34.7,-43.5,71,52,1,29.94,29.83,17,5,26,0.00
2012-7-16,62.0,55.7,53.0,45.4,34.6,-45.3,71,54,1,29.93,29.86,17,7,23,0.01
2012-7-17,65.0,58.3,54.0,46.0,35.1,-44.1,70,51,1,30.00,29.91,14,4,20,0.06
2012-7-18,67.0,59.3,54.0,47.3,36.7,-41.7,70,51,1,29.99,29.93,20,4,22,0.00
2012-7-19,67.0,59.9,53.0,47.2,36.7,-44.1,71,51,1,30.02,29.95,18,4,25,0.02
2012-7-20,72.0,60.8,55.0,51.9,37.0,-44.1,70,50,1,30.06,29.93,18,5,23,0.00
2012-7-21,84.0,64.8,53.0,61.8,39.3,-44.7,71,49,1,29.99,29.84,15,3,23,0.00
2012-7-22,64.0,57.9,53.0,45.0,34.3,-44.7,71,50,1,29.93,29.85,22,6,26,0.00
2012-7-23,66.0,58.8,53.0,46.8,35.6,-44.1,70,51,1,29.94,29.88,24,8,31,0.00
2012-7-24,70.0,59.2,54.0,47.6,37.0,-42.9,70,52,1,29.96,29.90,17,6,25,0.00
2012-7-25,64.0,58.2,54.0,46.3,36.5,-42.9,71,53,1,29.98,29.93,18,7,22,0.00
2012-7-26,64.0,56.6,53.0,44.4,35.0,-44.7,70,53,1,29.99,29.93,17,6,23,0.00
2012-7-27,63.0,56.0,52.0,44.4,33.9,-44.7,71,52,1,30.01,29.96,25,6,28,0.02
2012-7-28,67.0,56.6,52.0,45.5,34.5,-44.7,71,52,1,30.03,29.96,19,5,29,0.02
2012-7-29,64.0,56.4,52.0,45.0,33.9,-45.3,71,52,1,30.04,29.94,20,4,25,0.00
2012-7-30,78.0,61.6,53.0,61.6,38.2,-45.3,80,51,1,29.99,29.84,14,4,21,0.00
2012-7-31,63.0,56.7,53.0,45.4,34.1,-44.7,72,51,1,29.99,29.92,17,5,23,0.00
2012-8-1,64.0,56.8,53.0,45.4,34.4,-45.3,71,52,1,30.04,29.95,14,5,26,0.00
2012-8-2,65.0,56.3,52.0,44.8,34.1,-45.3,71,52,1,30.00,29.90,17,5,26,0.00
2012-8-3,63.0,54.9,52.0,43.8,33.9,-45.3,71,53,1,29.93,29.83,17,6,28,0.00
2012-8-4,61.0,55.5,51.0,47.3,35.8,-44.7,71,56,1,29.98,29.88,12,3,17,0.00
2012-8-5,66.0,59.0,55.0,46.9,36.7,-42.9,70,52,1,30.06,29.96,13,3,23,0.02
2012-8-6,71.0,60.4,54.0,49.7,36.9,-44.1,70,51,1,30.08,29.98,15,3,23,0.00
2012-8-7,67.0,58.8,54.0,47.7,34.4,-44.7,71,50,1,30.04,29.94,15,4,25,0.00
2012-8-8,71.0,59.1,52.0,50.1,36.1,-45.3,72,51,1,30.01,29.88,14,5,20,0.00
2012-8-9,75.0,60.0,52.0,64.7,36.1,-46.0,79,51,1,29.96,29.82,12,4,19,0.00
2012-8-10,65.0,56.9,52.0,45.8,33.4,-45.3,72,51,1,29.88,29.78,13,5,18,0.00
2012-8-11,77.0,58.9,51.0,62.4,36.3,-46.0,85,53,1,29.87,29.74,11,4,19,0.00
2012-8-12,70.0,57.4,51.0,62.6,36.4,-44.7,92,54,1,29.89,29.78,13,4,17,0.00
2012-8-13,74.0,59.6,51.0,63.0,39.0,-46.0,100,57,1,29.89,29.76,12,3,18,0.00
2012-8-14,64.0,57.3,52.0,46.5,35.6,-44.7,74,54,1,29.86,29.80,19,4,23,0.00
2012-8-15,65.0,57.9,55.0,62.0,37.2,-44.1,100,55,1,29.91,29.83,16,4,22,0.00
2012-8-16,67.0,59.3,54.0,66.0,37.7,-43.5,100,56,1,29.97,29.86,13,3,21,0.00
2012-8-17,66.0,58.0,53.0,63.8,37.1,-44.1,99,55,1,30.00,29.90,17,2,23,0.00
2012-8-18,66.0,57.8,53.0,63.5,37.5,-43.5,97,57,1,29.97,29.89,16,4,28,0.00
2012-8-19,63.0,55.4,52.0,43.8,33.6,-45.3,71,53,1,29.99,29.89,18,4,24,0.00
2012-8-20,63.0,54.7,51.0,43.8,33.1,-46.0,72,53,1,29.97,29.87,16,4,26,0.00
2012-8-21,62.0,55.3,52.0,45.4,34.5,-45.3,72,54,1,29.95,29.85,19,4,27,0.00
2012-8-22,63.0,55.4,52.0,46.3,35.0,-45.3,72,54,1,29.96,29.89,20,4,22,0.00
2012-8-23,63.0,56.3,51.0,45.8,34.1,-44.1,71,53,1,29.95,29.87,12,4,23,0.00
2012-8-24,71.0,57.7,52.0,53.5,38.2,-44.1,91,58,1,29.92,29.84,17,6,25,0.00
2012-8-25,60.0,54.9,52.0,45.4,35.0,-45.3,72,55,1,29.91,29.83,19,5,20,0.00
2012-8-26,66.0,58.6,54.0,64.0,38.0,-42.9,100,56,1,29.98,29.88,15,5,24,0.00
2012-8-27,76.0,63.0,55.0,67.9,43.1,-42.3,94,58,1,30.01,29.91,14,2,19,0.00
2012-8-28,76.0,63.7,54.0,54.1,38.6,-43.5,91,51,1,29.99,29.88,13,2,24,0.00
2012-8-29,83.0,65.7,51.0,52.1,35.1,-43.5,75,44,1,29.95,29.76,9,1,14,0.00
2012-8-30,61.0,56.8,53.0,60.0,35.3,-44.7,100,59,1,29.89,29.81,21,7,30,0.00
2012-8-31,64.0,56.5,54.0,49.2,39.0,-44.1,79,60,1,29.96,29.88,15,4,24,0.01
2012-9-1,64.0,56.0,50.0,48.9,35.4,-44.7,79,55,1,30.02,29.96,16,4,21,0.00
2012-9-2,76.0,60.7,49.0,54.0,37.9,-44.1,100,54,1,30.00,29.85,11,2,14,0.00
2012-9-3,76.0,60.0,50.0,60.5,41.8,-44.1,100,66,1,29.99,29.86,12,3,18,0.00
2012-9-4,64.0,55.2,50.0,55.4,35.6,-46.0,98,57,1,30.02,29.93,13,4,20,0.00
2012-9-5,66.0,56.5,52.0,54.6,38.4,-44.7,95,59,1,30.00,29.91,13,2,19,0.00
2012-9-6,66.0,57.8,52.0,53.7,39.7,-45.3,100,61,1,30.01,29.92,15,4,25,0.00
2012-9-7,67.0,58.3,51.0,55.2,39.7,-46.0,99,61,1,30.05,29.97,12,2,17,0.00
2012-9-8,62.0,55.3,53.0,58.0,45.1,-43.5,100,76,1,30.05,29.95,17,4,24,0.02
2012-9-9,67.0,58.0,52.0,54.4,40.6,-44.7,84,63,1,29.98,29.88,21,5,22,0.00
2012-9-10,74.0,60.1,53.0,54.3,39.6,-44.7,92,56,1,29.94,29.81,13,4,20,0.00
2012-9-11,65.0,57.6,53.0,60.1,41.1,-44.1,100,64,1,29.97,29.87,16,6,26,0.04
2012-9-12,67.0,57.4,53.0,62.1,39.2,-44.7,100,59,1,30.05,29.96,14,3,18,0.00
2012-9-13,68.0,57.9,52.0,61.0,39.5,-45.3,100,59,1,30.07,29.97,13,2,17,0.00
2012-9-14,66.0,56.7,53.0,61.7,38.4,-44.7,99,60,1,30.08,29.98,11,2,19,0.00
2012-9-15,65.0,55.9,50.0,52.4,36.9,-46.0,82,58,1,30.08,29.96,13,3,16,0.00
2012-9-16,69.0,55.3,48.0,53.4,37.4,-46.6,100,60,1,30.04,29.94,10,3,20,0.00
2012-9-17,64.0,56.3,53.0,57.7,39.4,-44.1,100,62,1,30.04,29.97,13,4,20,0.00
2012-9-18,65.0,56.3,51.0,60.8,40.5,-45.3,100,65,1,30.08,29.98,18,3,23,0.00
2012-9-19,66.0,57.0,53.0,60.0,38.4,-44.1,100,59,1,30.07,30.00,21,4,23,0.03
2012-9-20,68.0,56.9,49.0,52.6,37.9,-46.0,78,58,1,30.05,29.93,13,3,22,0.00
2012-9-21,68.0,57.3,51.0,52.8,36.7,-46.0,86,57,1,30.01,29.87,15,4,20,0.00
2012-9-22,77.0,59.6,51.0,54.8,37.8,-45.3,81,54,1,29.94,29.82,13,2,17,0.00
2012-9-23,76.0,57.8,48.0,59.1,37.8,-47.8,100,57,1,29.96,29.87,16,2,19,0.00
2012-9-24,69.0,57.4,51.0,60.2,39.2,-44.1,100,60,1,29.96,29.86,16,3,23,0.00
2012-9-25,64.0,55.3,49.0,59.0,35.1,-45.3,93,56,1,29.94,29.86,14,2,20,0.00
2012-9-26,61.0,54.3,50.0,46.6,34.7,-45.3,78,57,1,29.93,29.85,14,4,19,0.00
2012-9-27,76.0,57.4,50.0,58.0,38.6,-46.0,100,58,1,29.94,29.82,11,2,19,0.00
2012-9-28,60.0,54.0,49.0,45.0,35.3,-45.3,71,56,1,29.97,29.90,12,3,20,0.00
2012-9-29,68.0,54.6,51.0,52.2,40.4,-44.1,81,64,1,30.03,29.92,11,1,16,0.00
2012-9-30,89.0,67.6,48.0,54.6,32.2,-45.3,71,40,1,30.04,29.84,9,1,15,0.00
2012-10-1,96.0,76.0,58.0,67.5,39.7,-39.9,76,38,1,29.96,29.77,13,0,13,0.00
2012-10-2,98.0,79.2,63.0,63.9,28.0,-36.3,64,26,1,29.86,29.67,7,1,13,0.00
2012-10-3,79.0,68.2,59.0,57.6,41.2,-41.1,78,46,1,29.87,29.75,20,2,29,0.01
2012-10-4,65.0,60.5,57.0,57.7,43.0,-41.1,89,64,1,30.10,30.03,15,5,19,0.00
2012-10-5,70.0,61.4,55.0,61.7,43.1,-42.3,90,60,1,30.11,30.02,14,3,18,0.00
2012-10-6,71.0,60.2,53.0,51.8,39.2,-44.7,78,55,1,30.05,29.93,15,3,19,0.00
2012-10-7,65.0,57.6,52.0,60.7,40.0,-44.7,99,61,1,30.00,29.91,17,4,22,0.00
2012-10-8,67.0,59.0,52.0,56.7,40.2,-44.7,80,58,1,30.01,29.96,12,3,18,0.00
2012-10-9,69.0,60.2,54.0,60.0,40.3,-44.7,85,58,1,30.01,29.91,11,2,17,0.00
2012-10-10,67.0,57.5,53.0,62.0,39.9,-43.5,100,60,1,29.96,29.87,18,4,26,0.05
2012-10-11,57.0,54.8,53.0,45.8,39.1,-43.5,71,60,1,29.97,29.90,12,2,17,0.05
2012-10-12,63.0,56.6,52.0,52.6,39.6,-44.1,77,61,1,30.18,29.95,10,2,13,0.03
2012-10-13,73.0,59.5,52.0,54.2,39.9,-45.3,76,56,1,30.22,30.09,9,2,20,0.00
2012-10-14,73.0,60.3,55.0,60.2,41.3,-43.5,100,58,1,30.16,30.01,13,2,19,0.01
2012-10-15,76.0,62.1,54.0,59.6,43.4,-42.3,80,57,1,30.06,29.91,10,1,17,0.00
2012-10-16,77.0,64.6,58.0,68.8,46.4,-41.1,96,60,1,29.96,29.84,17,2,24,0.00
2012-10-17,86.0,69.5,57.0,55.4,25.5,-41.1,70,32,1,29.90,29.73,7,0,13,0.00
2012-10-18,87.0,71.6,60.0,65.0,38.2,-36.9,100,38,1,29.98,29.83,19,4,23,0.00
2012-10-19,65.0,60.5,55.0,53.7,42.5,-40.5,70,58,1,30.02,29.92,14,3,20,0.00
2012-10-20,67.0,56.8,52.0,54.3,39.3,-44.1,100,61,1,29.94,29.81,20,3,27,0.00
2012-10-21,62.0,54.1,48.0,48.9,38.3,-45.3,80,63,1,29.93,29.86,16,4,24,0.03
2012-10-22,63.0,55.7,51.0,52.6,37.8,-44.1,74,59,1,29.93,29.77,17,4,21,0.74
2012-10-23,63.0,55.3,50.0,48.9,36.8,-44.1,80,57,1,30.03,29.93,12,2,17,0.18
2012-10-24,64.0,56.6,51.0,53.1,39.5,-45.3,79,60,1,30.16,30.00,11,2,15,0.24
2012-10-25,68.0,56.8,52.0,52.8,38.9,-44.7,80,58,1,30.19,30.11,9,1,12,0.06
2012-10-26,75.0,61.2,51.0,55.0,37.1,-45.3,100,53,1,30.17,30.01,9,1,14,0.00
2012-10-27,81.0,64.6,55.0,57.6,43.6,-39.3,75,55,1,30.05,29.88,9,1,15,0.00
2012-10-28,80.0,62.7,54.0,62.4,41.6,-42.3,98,55,1,30.01,29.87,11,2,17,0.00
2012-10-29,73.0,58.6,52.0,56.4,39.7,-43.5,98,57,1,30.07,29.96,9,1,16,0.00
2012-10-30,70.0,56.7,51.0,55.4,37.7,-44.1,72,57,1,30.06,29.95,12,1,19,0.01
2012-10-31,64.0,58.5,55.0,48.2,41.3,-42.9,71,59,1,29.99,29.94,15,1,15,0.19
2012-11-1,65.0,58.7,52.0,48.2,39.5,-42.3,71,56,1,30.04,29.96,14,2,16,0.29
2012-11-2,68.0,57.3,49.0,54.6,38.5,-46.0,95,58,1,30.05,29.97,10,1,13,0.00
2012-11-3,74.0,60.9,52.0,55.7,40.5,-44.7,72,55,1,30.09,29.99,6,1,12,0.00
2012-11-4,81.0,65.6,55.0,57.8,42.2,-43.5,99,52,1,30.13,30.01,6,0,9,0.00
2012-11-5,81.0,67.6,57.0,56.3,43.8,-41.1,76,50,1,30.08,29.93,8,1,11,0.00
2012-11-6,80.0,66.6,56.0,56.7,42.8,-40.5,76,51,1,30.03,29.91,7,1,9,0.00
2012-11-7,58.0,55.1,54.0,47.6,38.6,-44.1,76,60,1,30.04,29.93,17,4,23,0.00
2012-11-8,60.0,52.7,46.0,50.0,34.6,-46.6,72,58,1,29.96,29.91,15,3,24,0.11
2012-11-9,56.0,49.5,43.0,42.3,31.0,-51.5,75,57,1,30.00,29.91,12,2,20,0.07
2012-11-10,59.0,51.0,46.0,44.3,31.8,-49.0,75,56,1,30.21,29.99,10,2,17,0.00
2012-11-11,59.0,47.6,43.0,43.1,35.6,-48.4,81,65,1,30.30,30.20,3,0,7,0.00
2012-11-12,63.0,52.8,44.0,54.0,31.7,-48.4,100,53,1,30.31,30.17,6,0,9,0.00
2012-11-13,68.0,56.7,48.0,47.6,30.2,-47.2,76,45,1,30.21,30.02,7,1,10,0.00
2012-11-14,72.0,59.1,48.0,53.0,37.7,-43.5,100,54,1,30.09,29.94,9,1,12,0.00
2012-11-15,70.0,57.3,50.0,52.8,38.6,-44.1,79,57,1,30.00,29.89,16,1,17,0.00
2012-11-16,63.0,56.6,53.0,47.9,41.6,-43.5,70,60,1,29.99,29.86,8,0,14,0.45
2012-11-17,59.0,56.4,53.0,48.2,43.7,-42.9,72,64,1,29.99,29.82,10,2,15,0.73
2012-11-18,62.0,55.8,49.0,48.6,37.3,-45.3,75,57,1,30.12,29.99,10,2,12,0.00
2012-11-19,68.0,58.5,50.0,52.8,40.1,-46.0,80,58,1,30.15,30.08,13,2,15,0.00
2012-11-20,63.0,59.5,56.0,50.3,41.5,-42.3,71,58,1,30.11,29.98,15,3,17,0.63
2012-11-21,64.0,57.7,49.0,49.2,38.5,-42.3,70,56,1,30.17,30.00,11,3,15,0.54
2012-11-22,68.0,55.0,47.0,47.7,35.3,-47.8,75,56,1,30.19,30.09,7,0,9,0.00
2012-11-23,69.0,56.3,48.0,49.4,36.1,-47.8,74,55,1,30.19,30.07,8,1,10,0.00
2012-11-24,70.0,56.6,50.0,52.5,36.8,-44.1,88,55,1,30.14,29.98,6,1,10,0.00
2012-11-25,67.0,55.0,50.0,53.8,37.3,-44.7,89,59,1,30.03,29.90,9,0,10,0.00
2012-11-26,62.0,53.3,49.0,46.3,36.2,-46.6,78,59,1,30.05,29.97,10,2,15,0.01
2012-11-27,64.0,56.0,50.0,55.2,39.7,-44.7,97,61,1,30.07,29.97,8,1,12,0.00
2012-11-28,63.0,57.3,54.0,47.1,39.9,-43.5,69,58,1,30.02,29.81,17,4,29,0.27
2012-11-29,62.0,58.8,55.0,49.9,43.0,-41.7,69,59,1,30.01,29.85,23,4,34,0.09
2012-11-30,61.0,58.7,56.0,59.0,46.0,-42.3,100,66,1,29.98,29.80,19,6,35,1.41
2012-12-1,63.0,58.6,56.0,58.1,43.6,-42.3,100,64,1,29.99,29.87,15,3,21,0.82
2012-12-2,62.0,56.9,50.0,51.3,40.0,-43.5,75,58,1,30.08,29.76,29,5,42,1.16
2012-12-3,66.0,53.4,47.0,54.0,36.5,-46.6,100,59,1,30.15,30.06,6,0,9,0.00
2012-12-4,63.0,57.0,52.0,51.1,39.7,-44.1,75,59,1,30.16,30.08,7,1,13,0.04
2012-12-5,61.0,58.9,56.0,50.5,43.9,-41.1,79,61,1,30.10,30.03,15,1,16,1.05
2012-12-6,62.0,55.0,49.0,57.0,38.6,-45.3,100,62,1,30.10,30.03,8,1,13,0.00
2012-12-7,66.0,53.0,46.0,50.7,34.9,-47.8,99,59,1,30.11,30.00,6,0,7,0.00
2012-12-8,63.0,51.3,46.0,52.0,33.5,-49.0,100,60,1,30.08,29.98,7,1,10,0.00
2012-12-9,70.0,56.5,47.0,50.0,33.7,-48.4,100,52,1,30.13,30.00,6,0,9,0.00
2012-12-10,68.0,58.1,51.0,50.3,37.3,-43.5,85,55,1,30.15,30.05,7,1,10,0.00
2012-12-11,54.0,51.5,47.0,51.5,35.9,-46.6,100,62,1,30.06,29.89,12,2,18,0.03
2012-12-12,55.0,50.0,44.0,52.0,35.2,-47.2,100,64,1,29.94,29.86,13,2,16,0.09
2012-12-13,55.0,46.9,41.0,40.0,29.9,-50.3,81,58,1,29.96,29.87,10,1,13,0.00
2012-12-14,53.0,46.4,41.0,37.9,31.4,-48.4,78,61,1,30.03,29.87,3,0,7,0.00
2012-12-15,48.0,45.9,42.0,46.0,34.7,-50.9,100,68,1,30.07,30.00,11,2,15,0.15
2012-12-16,55.0,51.0,47.0,55.0,37.6,-46.6,100,66,1,30.07,30.00,12,2,16,0.03
2012-12-17,58.0,53.5,47.0,56.0,40.6,-46.0,100,70,1,30.03,29.97,16,4,22,0.22
2012-12-18,53.0,46.9,41.0,47.0,31.4,-48.4,100,61,1,30.18,30.01,10,2,23,0.00
2012-12-19,56.0,45.3,37.0,38.9,29.3,-53.3,84,63,1,30.26,30.17,6,1,9,0.00
2012-12-20,61.0,50.2,40.0,50.4,32.4,-52.7,91,60,1,30.20,29.97,13,3,19,0.00
2012-12-21,55.0,52.4,50.0,53.0,43.4,-45.3,100,74,1,29.98,29.87,12,4,23,0.19
2012-12-22,57.0,52.5,48.0,54.0,38.4,-47.2,100,67,1,30.05,29.85,17,4,23,0.95
2012-12-23,56.0,52.2,49.0,55.0,42.0,-44.7,100,71,1,30.05,29.86,25,4,28,1.17
2012-12-24,58.0,50.4,44.0,44.1,33.7,-49.6,81,62,1,30.15,30.00,7,1,13,0.00
2012-12-25,52.0,46.8,43.0,49.0,36.0,-49.6,100,69,1,30.14,29.81,10,1,16,1.08
2012-12-26,54.0,49.5,47.0,45.0,34.2,-48.4,82,64,1,30.08,29.88,15,4,24,0.24
2012-12-27,57.0,49.2,44.0,42.1,33.3,-50.9,82,62,1,30.14,30.06,7,1,16,0.00
2012-12-28,52.0,45.7,41.0,41.5,33.0,-50.9,85,67,1,30.16,30.03,6,0,7,0.16
2012-12-29,56.0,46.9,42.0,43.1,33.1,-49.6,84,66,1,30.08,29.98,7,1,15,0.13
2012-12-30,56.0,47.3,40.0,42.1,31.5,-52.1,83,63,1,30.15,30.02,7,1,10,0.00
2012-12-31,57.0,46.9,39.0,42.1,31.1,-52.1,83,64,1,30.24,30.15,7,0,9,0.00
2013-1-1,55.0,46.3,40.0,39.5,30.3,-52.1,83,63,1,30.22,30.15,12,1,15,0.00